www.pogodaiklimat.ru

Погода и климат >> Архив погоды >> Россия >> Калмыкия >> Яшкуль


АРХИВ ПОГОДЫ в Яшкуле

Время (UTC), дата Ветер
(напр.,м/с)
 
Видим.   Явления Облачность Т
(С)
Тd
(С)
f
(%)
Тe
(С)
Тes
(С)
Комфортность P
(гПа)
Po
(гПа)
Тmin
(С)
Tmax
(С)
R
(мм)
R24
(мм)
S
(см)
06 19.08 ЮВ 3 20 км 8/0
[Ac trans]
+27.7 +13.1 41 +29 +33 жарко 1013.2 1014.0
09 19.08 ЮВ 8-13
{13}
20 км 6/0
[Ac trans]
+35.4 +5.5 16 +33 +35 жарко 1012.9 1013.7
12 19.08 Ю 3
{13}
20 км 9/0
[Ac trans]
+35.8 +12.1 24 +36 +39 очень
жарко
1013.1 1013.9
15 19.08 ЮВ 5
{13}
20 км 6/0
[Ac trans Ci sp]
+35.9 +3.4 13 +33 +33 жарко 1013.6 1014.3 +37.5
18 19.08 В 5
{13}
20 км ясно +28.2 +13.2 40 +30 +30 жарко 1015.7 1016.5
21 19.08 В 4 20 км ясно +22.7 +16.8 69 +27 +27 душно 1016.1 1016.9
00 20.08 В 2 20 км ясно +19.6 +15.8 79 +22 +22 комфорт 1016.2 1017.0
03 20.08 В 2 20 км ясно +18.4 +13.7 74 +19 +20 прохладно 1016.9 1017.7 +16.6
06 20.08 ЮВ 5 20 км ясно +31.9 +5.4 19 +30 +34 жарко 1017.4 1018.2
09 20.08 ЮВ 7-12
{13}
20 км ясно +37.3 +2.1 11 +34 +38 очень
жарко
1016.2 1016.9
12 20.08 ЮВ 6
{14}
20 км 6/0
[Ci fib]
+38.6 +1.6 10 +35 +38 очень
жарко
1015.1 1015.9
15 20.08 ЮВ 6
{12}
20 км 3/0
[Ac trans Ci fib]
+35.4 +2.6 13 +32 +32 жарко 1015.6 1016.4 +38.8
18 20.08 В 3
{10}
20 км ясно +26.6 +4.6 24 +26 +26 жарко 1017.1 1017.9
21 20.08 В 3 20 км ясно +22.9 +8.9 41 +24 +24 комфорт 1016.6 1017.4
00 21.08 В 2 20 км ясно +19.7 +12.2 62 +22 +22 комфорт 1016.5 1017.3
03 21.08 штиль 0 20 км ясно +18.0 +9.5 58 +18 +19 прохладно 1016.6 1017.4 +16.6
06 21.08 В 2 20 км ясно +31.6 +6.2 20 +30 +38 жарко 1016.6 1017.4
09 21.08 В 3 20 км 6/0
[Ci fib]
+36.7 +3.4 13 +34 +45 очень
жарко
1015.0 1015.8
12 21.08 В 4
{12}
20 км 6/0
[Ci fib]
+38.4 +3.3 11 +35 +40 очень
жарко
1013.3 1014.1
15 21.08 В 4 20 км ясно +37.2 +1.8 11 +34 +34 очень
жарко
1012.5 1013.3 +39.0
18 21.08 ЮВ 2 20 км ясно +28.7 +1.8 18 +27 +27 жарко 1013.3 1014.1
21 21.08 штиль 0 20 км ясно +21.9 +2.3 27 +22 +22 комфорт 1013.6 1014.4
00 22.08 СВ 4 20 км ясно +21.1 +3.4 31 +21 +21 комфорт 1013.6 1014.4
03 22.08 штиль 0 20 км ясно +21.1 +5.1 35 +22 +22 комфорт 1013.7 1014.5 +20.0
06 22.08 штиль 0 20 км ясно +31.6 +5.1 19 +30 +41 жарко 1013.7 1014.5
09 22.08 В 3 20 км ясно +36.8 +2.3 12 +34 +46 очень
жарко
1012.6 1013.4
12 22.08 СВ 6-10
{11}
20 км ясно +38.9 -0.3 9 +35 +38 очень
жарко
1011.4 1012.2
15 22.08 В 4
{10}
20 км ясно +37.0 +3.1 12 +34 +34 очень
жарко
1011.3 1012.0 +39.0
18 22.08 ЮВ 2 20 км ясно +29.2 +4.4 21 +28 +28 жарко 1012.9 1013.7
21 22.08 В 2 20 км ясно +23.9 +5.7 31 +24 +24 комфорт 1012.9 1013.7
00 23.08 В 2 20 км ясно +19.9 +8.1 46 +21 +21 комфорт 1013.4 1014.2
03 23.08 СВ 4 20 км 8/0
[Ac trans]
+21.0 +11.9 56 +23 +24 комфорт 1014.0 1014.8 +18.2
06 23.08 В 6 20 км 8/0
[Ci fib]
+34.5 +3.5 14 +32 +34 жарко 1013.8 1014.6
09 23.08 В 6
{11}
20 км 6/0
[Ci fib]
+38.9 +1.9 10 +35 +40 очень
жарко
1012.6 1013.4
12 23.08 В 6
{13}
20 км 10/0
[Ac und]
+38.5 +3.8 12 +35 +36 очень
жарко
1011.9 1012.6
15 23.08 В 7
{11}
20 км 10/0
[Ac As]
+36.7 +3.8 13 +34 +34 очень
жарко
1011.3 1012.1 +39.6
18 23.08 В 3 20 км 6/0
[Ac trans]
+29.6 +7.0 24 +28 +28 жарко 1013.5 1014.3
21 23.08 СВ 3 20 км ясно +25.6 +9.5 36 +26 +26 жарко 1013.2 1014.0
00 24.08 СВ 3 20 км ясно +24.7 +11.4 43 +26 +26 жарко 1013.0 1013.8
03 24.08 С 3 20 км 6/0
[Ac trans]
+22.8 +8.2 39 +24 +24 комфорт 1013.4 1014.2 +22.1
06 24.08 В 4 20 км 8/6 600 м
[Cb cap Ac trans Ci fib]
+29.8 +13.2 36 +31 +33 жарко 1014.2 1015.0
09 24.08 В 4 20 км 6/6 600 м
[Cb cap]
+35.2 +9.0 20 +34 +38 очень
жарко
1012.8 1013.6
12 24.08 СВ 7-12
{12}
20 км 10/0
[Ac As]
+37.7 +6.7 15 +35 +36 очень
жарко
1011.5 1012.3
15 24.08 В 5
{12}
20 км 10/5 600 м
[Cb cap Ac As]
+35.8 +8.7 19 +34 +34 очень
жарко
1012.0 1012.8 +38.1
18 24.08 В 5 20 км 10/0
[Ac As]
+31.3 +12.0 31 +32 +32 жарко 1013.3 1014.1
21 24.08 В 5
{11}
20 км 10/0
[Ac As]
+29.8 +12.8 35 +31 +31 жарко 1013.1 1013.9
00 25.08 В 4 20 км 10/0
[Ac As]
+26.8 +14.3 46 +29 +29 жарко 1013.3 1014.1
03 25.08 В 3 20 км 10/0
[Ac As]
+25.5 +15.4 54 +29 +29 душно 1014.3 1015.2 +25.5
06 25.08 В 4 20 км 10/5 600 м
[Cb cap Ac As]
+28.5 +15.5 45 +31 +32 душно 1015.7 1016.5 +25.4
09 25.08 штиль 0 20 км 10/6 600 м
[Cb cap Ac As]
+27.9 +18.9 58 +33 +35 очень
душно
1016.1 1016.9
12 25.08 СЗ 5 20 км 10/6 600 м
[Cb cap Ac As]
+25.0 +18.1 66 +29 +30 душно 1016.1 1016.9
15 25.08 С 7 10 км слаб. ливневой дождь 10/10 600 м
[Cb cap]
+24.5 +16.4 61 +28 +28 душно 1016.1 1016.9 +28.9 1
18 25.08 С 8-12
{15}
10 км слаб. ливневой дождь 10/10 600 м
[Cb cap]
+25.7 +14.0 48 +28 +28 жарко 1016.3 1017.1
21 25.08 С 3
{12}
20 км {ливн. осадки} 10/0
[Ac As]
+23.6 +14.4 56 +26 +26 жарко 1017.5 1018.3
00 26.08 СВ 2 20 км {ливн. осадки} 10/0
[Ac As]
+24.3 +12.2 47 +26 +26 жарко 1017.6 1018.4
03 26.08 С 2 20 км {ливн. осадки} 10/0
[Ac As]
+22.5 +12.9 55 +25 +25 комфорт 1018.6 1019.4 +22.2 0.4

 

Местоположение метеостанции Яшкуль (Калмыкия, Россия): широта 46.18 долгота 45.35 высота над уровнем моря -7 м.

В архиве по умолчанию представлена погода в Яшкуле за последнюю неделю. Архивные данные за месяц целиком и за предыдущие месяцы, начиная с января 2011 года, Вы можете получить, выбрав интересующий диапазон дат из раскрывающегося списка и нажав кнопку "Ввод!".


*Определитесь, кто Вы:
робот инопланетянин человек

Внимание! Время в таблицах - всемирное. Для получения местного времени необходимо прибавить поправку, которая равна 3 ч.

Смотрите также архив погоды в соседних городах и на ближайших метеорологических станциях:

Погода в Утте (Калмыкия, Россия) (56 км)
Погода в Ики-Буруле (Калмыкия, Россия) (70 км)
Погода в Элисте (Калмыкия, Россия) (81 км)
Погода в Комсомольском (Калмыкия, Россия) (106 км)
Погода в Арзгире (Ставропольский край, Россия) (124 км)
Погода в Юсте (Калмыкия, Россия) (129 км)
Погода в Ремонтном (Ростовская область, Россия) (136 км)
Погода в Кетченерах (Калмыкия, Россия) (140 км)
Погода в Лимане (Астраханская область, Россия) (151 км)
Погода в Дивном (Ставропольский край, Россия) (157 км)

Пояснения к столбцам:

Ветер - указаны скорость ветра в м/с - средняя за 10 мин, порывы в срок и между сроками (в фигурных скобках) и направление, откуда дует ветер: С - северный, СВ - северо-восточный, В - восточный, ЮВ - юго-восточный, Ю - южный, ЮЗ - юго-западный, З - западный, СЗ - северо-западный.
Видимость - горизонтальная дальность видимости в метрах или километрах. При видимости от 1 до 10 км при отсутствии осадков обычно наблюдается дымка, при ухудшении видимости до 1 км и менее - туман. В сухую погоду видимость может ухудшаться дымом, пылью или мглою.
Явления - указаны атмосферные явления, наблюдавшиеся в срок или в последний час перед сроком; фигурными скобками обозначены явления, наблюдавшиеся между сроками (за 1-3 часа до срока); квадратными скобками обозначены град или гололедные отложения с указанием их диаметра в мм.
Облачность - указаны через наклонную черту общая и нижняя облачность в баллах и высота нижней границы облаков в метрах; квадратными скобками обозначены формы облаков: Ci - перистые, Cs - перисто-слоистые, Cc - перисто-кучевые, Ac - высококучевые, As - высокослоистые, Sc - слоисто-кучевые, Ns - слоисто-дождевые, Cu - кучевые, Cb - кучево-дождевые. Подробнее классификацию облаков см. в Атласе облаков (PDF).
T - Температура воздуха - температура, измеренная на высоте 2 м над землей.
Td - Температура точки росы - температура, при понижении до которой содержащийся в воздухе водяной пар достигнет насыщения.
f - Относительная влажность воздуха - влажноcть воздуха, измеренная на высоте 2 м над землей.
Te - Эффективная температура - температура, которую ощущает одетый по сезону человек в тени. Характеристика душности погоды. При расчете учитывается влияние влажности воздуха и скорости ветра на теплоощущения человека.
Tes - Эффективная температура на солнце - температура, которую ощущает человек, с поправкой на солнечный нагрев. Характеристика знойности погоды. Зависит от высоты солнца над горизонтом, облачности и скорости ветра. Ночью, в пасмурную погоду, а также при ветре 12 м/с и более поправка равна нулю.
P - Атмосферное давление - приведенное к уровню моря атмосферное давление.
Po - Атмосферное давление - измеренное на уровне метеостанции атмосферное давление.
Tmin - Минимальная температура - минимум температуры воздуха на высоте 2 м над землей.
Tmax - Максимальная температура - максимум температуры воздуха на высоте 2 м над землей.
R - Количество осадков - Количество выпавших осадков за период времени, мм. При наведении курсора мыши на число - период времени, за который выпало указанное количество осадков.
R24 - Количество осадков - Количество выпавших осадков за 24 часа, мм.
S - Снежный покров - Высота снежного покрова, см. При наведении курсора мыши на число - состояние снежного покрова и степень покрытия местности в баллах.